Regional Weather Roundup
Issued by NWS

Home | Current Version | Previous Version | Graphics & Text | Print | Product List | Glossary On
Versions: 1 2 3 4 5 6 7 8 9 10 11 12 13 14 15 16 17 18 19 20 21 22 23 24 25 26 27 28 29 30 31 32 33 34 35 36 37 38 39 40 41 42 43 44 45 46 47 48 49 50
000
ASUS43 KOAX 291110
RWRNE

WEATHER ROUNDUP FOR NEBRASKA
NATIONAL WEATHER SERVICE OMAHA NE
500 AM CST MON DEC 29 2014

NOTES: SATELLITE DATA IS BEING USED TO AUGMENT CLOUD COVER ABOVE
       12000 FEET.
       "FAIR" INDICATES FEW OR NO CLOUDS BELOW 12,000 FEET WITH NO
       SIGNIFICANT WEATHER AND/OR OBSTRUCTIONS TO VISIBILITY.

  * THESE STATIONS DO NOT REPORT WEATHER SUCH AS RAIN...SNOW OR FOG.

NEZ001>004-019>022-054>056-291200-
NEBRASKA PANHANDLE

CITY           SKY/WX    TMP DP  RH WIND       PRES   REMARKS
SCOTTSBLUFF    LGT SNOW  15  10  80 N23       30.11S WCI  -3
ALLIANCE       LGT SNOW  15  11  83 N16       30.11R FOG     WCI  -1
CHADRON        LGT SNOW  12   8  84 NE18      30.24R FOG     WCI  -6
KIMBALL        CLOUDY    15  13  92 N14       30.01S WCI   0
SIDNEY         CLOUDY    16  12  84 N12       30.06R WCI   3
$$

NEZ057>060-069>072-079>082-291200-
SOUTHWEST NEBRASKA

CITY           SKY/WX    TMP DP  RH WIND       PRES   REMARKS
NORTH PLATTE   CLOUDY    18  14  84 NE12      30.15R WCI   5
IMPERIAL       CLOUDY    16  12  84 CALM      30.09R
LEXINGTON      CLOUDY    20  17  88 NE12      30.17S WCI   8
MCCOOK         CLEAR      8   5  87 NW5       30.14R WCI   0
OGALLALA       CLOUDY    20  18  91 E10       30.11R WCI   9
$$

NEZ005>010-023>029-035>040-094-291200-
NORTH CENTRAL NEBRASKA

CITY           SKY/WX    TMP DP  RH WIND       PRES   REMARKS
VALENTINE      LGT SNOW  10   6  84 NE13      30.29R VSB 1   WCI  -5
AINSWORTH      LGT SNOW  14  11  89 NE15      30.26R WCI  -2
BROKEN BOW     LGT SNOW  18  14  84 N8        30.19R FOG     WCI   8
O`NEILL        CLOUDY    15  13  92 N12       30.30R WCI   2
ORD            LGT SNOW  18  14  84 NE9       30.23S FOG     WCI   7
THEDFORD       LGT SNOW  17  14  90 NE10      30.20R WCI   4
$$

NEZ041-046>049-061>064-073>077-083>087-291200-
SOUTH CENTRAL NEBRASKA

CITY           SKY/WX    TMP DP  RH WIND       PRES   REMARKS
GRAND ISLAND   CLOUDY    19  16  88 NE13      30.22S WCI   6
AURORA         FLURRIES  20  18  93 NE14      30.21S WCI   6
HASTINGS       MOCLDY    19  16  88 NE12      30.18R WCI   7
HEBRON         MOCLDY    24  21  88 N5        30.20S WCI  18
HOLDREGE       CLOUDY    19  17  90 NE10      30.17R WCI   7
KEARNEY *      CLOUDY    18  16  93 N13       30.19R WCI   4
YORK           FLURRIES  19  18  93 NE15      30.22S WCI   5
$$

NEZ011>018-030>034-042>045-291200-
NORTHEAST NEBRASKA

CITY           SKY/WX    TMP DP  RH WIND       PRES   REMARKS
NORFOLK        LGT SNOW  19  16  88 NE9       30.29R FOG     WCI   8
ALBION         LGT SNOW  19  15  84 NE10      30.26R WCI   7
BLAIR          CLOUDY    22  19  88 N10       30.25R WCI  11
COLUMBUS *     CLOUDY    19  12  73 NE13      30.28R WCI   7
FREMONT        MOCLDY    21  18  87 NE7       30.27S WCI  12
TEKAMAH        CLOUDY    21  16  81 N10       30.30R WCI  10
WAYNE          CLOUDY    19  15  88 NE12      30.31R WCI   6
$$

NEZ050>053-065>068-078-088>093-291200-
SOUTHEAST NEBRASKA

CITY           SKY/WX    TMP DP  RH WIND       PRES   REMARKS
LINCOLN        CLOUDY    22  19  89 N10       30.26R WCI  11
OMAHA EPPLEY   CLOUDY    22  18  85 N10       30.28S WCI  11
BEATRICE       CLOUDY    26  24  91 NE8       30.20S WCI  17
FALLS CITY     CLOUDY    29  23  78 CALM      30.21R
NEBRASKA CITY  CLOUDY    26  26  99 NE12      30.22R FOG     WCI  15
PLATTSMOUTH    CLOUDY    23  20  89 N8        30.24R WCI  14
$$

NEZ044-045-051>053-067-291200-
OMAHA AREA

CITY           SKY/WX    TMP DP  RH WIND       PRES   REMARKS
OMAHA EPPLEY   CLOUDY    22  18  85 N10       30.28S WCI  11
BLAIR          CLOUDY    22  19  88 N10       30.25R WCI  11
FREMONT        MOCLDY    21  18  87 NE7       30.27S WCI  12
MILLARD        CLOUDY    23  19  83 N3        30.26S
OFFUTT AFB     MOCLDY    23  19  85 N10       30.25R WCI  12
PLATTSMOUTH    CLOUDY    23  20  89 N8        30.24R WCI  14
WAHOO          CLOUDY    22  18  84 N12       30.26R WCI  10
$$



USA.gov is the U.S. government's official web portal to all federal, state and local government web resources and services.